Regional Weather Roundup
Issued by NWS

Home | Current Version | Previous Version | Text Only | Print | Product List | Glossary Off
Versions: 1 2 3 4 5 6 7 8 9 10 11 12 13 14 15 16 17 18 19 20 21 22 23 24 25 26 27 28 29 30 31 32 33 34 35 36 37 38 39 40 41 42 43 44 45 46 47 48 49 50

000
ASUS43 KFSD 231802
RWRSD

WEATHER ROUNDUP FOR SOUTH DAKOTA
NATIONAL WEATHER SERVICE SIOUX FALLS SD
100 PM CDT TUE SEP 23 2014

NOTE: "FAIR" INDICATES FEW OR NO CLOUDS BELOW 12,000 FEET WITH NO
SIGNIFICANT WEATHER AND/OR OBSTRUCTIONS TO VISIBILITY.


SDZ001>005-009-010-012>017-231900-
NORTHWEST AND NORTH CENTRAL SOUTH DAKOTA

CITY           SKY/WX    TMP DP  RH WIND       PRES   REMARKS
FAITH            N/A     69  56  62 E9        29.90F
MOBRIDGE       CLOUDY    64  57  78 SE15      29.92S
$$

SDZ012>016-024>037-041>051-057-063-072>074-231900-
SOUTHWEST AND SOUTH CENTRAL SOUTH DAKOTA

CITY           SKY/WX    TMP DP  RH WIND       PRES   REMARKS
RAPID CTY ARPT MOSUNNY   75  56  51 VRB5      29.94F
PIERRE         CLOUDY    64  56  75 SE17      29.91F
CUSTER         PTSUNNY   69  45  41 N8        30.06R
ELLSWORTH AFB  MOSUNNY   74  56  52 N6        29.94S
PHILIP         MOSUNNY   69  56  62 N6        29.90F
PINE RIDGE     CLOUDY    70  54  56 NW7       29.96S
WINNER         CLOUDY    67  56  67 S21G28    29.93F
$$

SDZ004>011-016>023-039-040-231900-
NORTHEAST SOUTH DAKOTA

CITY           SKY/WX    TMP DP  RH WIND       PRES   REMARKS
ABERDEEN       CLOUDY    58  55  90 S23G32    30.03S
WATERTOWN      LGT RAIN  57  53  86 S17       30.09F
SISSETON         N/A     68  50  52 S20G29    30.06F
$$

SDZ017-020-022-023-036>040-048>070-231900-
SOUTHEAST SOUTH DAKOTA

CITY           SKY/WX    TMP DP  RH WIND       PRES   REMARKS
SIOUX FALLS    CLOUDY    59  56  89 SE9       30.11F
HURON          LGT RAIN  57  55  93 SE15G23   30.02F
CHAMBERLAIN    CLOUDY    62  56  80 S17G23    29.96F
MITCHELL       CLOUDY    58  56  93 SE17      30.04F
YANKTON        CLOUDY    57  55  94 SE12G20   30.08F
$$

ABBREVIATIONS USED IN REMARKS
   TC - TEMPERATURE IN CELSIUS
  WCI - WIND CHILL INDEX
   HX - HEAT INDEX
  VSB - VISIBILITY



USA.gov is the U.S. government's official web portal to all federal, state and local government web resources and services.